Weather in Kinshasa

Democratic Republic of the Congo     4˚18′36″S   15˚17′22″E
temp.,
°C
wind,
m/s
gust,
m/s
humid.,
%
clouds,
%
prec.,
mm/h
press.,
hPa
HPBL,
m
29 november, sun
sun2901:00+24˚ne128191 2.7 1012114
04:00+23˚n118468 0.0 1011136
07:00+24˚e008184 1.2 1014258
10:00+31˚wsw1158100 0.1 1013906
13:00+34˚wsw224680 0.3 10101757
16:00+33˚nw125015 0.6 10071845
19:00+27˚sw126717 1.7 1010337
22:00+26˚ene1174100 1.1 1012110
30 november, mon
mon3001:00+24˚n118383 3.6 101243
04:00+23˚w018595 2.1 1011169
07:00+25˚sw028191 2.9 1014351
10:00+31˚ssw125670 0.0 10131031
13:00+34˚wsw224466 0.1 10101917
16:00+31˚s235796 1.3 10081419
19:00+26˚ssw127592 10.2 1011203
22:00+24˚wsw2580100 6.3 1013225
1 december, tue
tue101:00+24˚wnw128299 7.6 1012192
04:00+23˚nne118483 0.2 1012148
07:00+24˚ene018592 0.7 1014196
10:00+25˚se137799 0.1 1014514
13:00+27˚se136898 0.1 1011640
16:00+29˚s125861 0.0 10081028
19:00+26˚se127355 0.0 1010354
22:00+24˚ene01819 0.0 1013148
2 december, wed
wed201:00+23˚ene018429 0.0 1011126
04:00+23˚w018775 0.2 1011159
07:00+24˚wnw018249 0.3 1012348
10:00+31˚sw125610 0.0 10121061
13:00+33˚wsw22467 0.6 10081840
16:00+30˚w236286 5.1 1006969
19:00+26˚w247193 6.5 1009368
22:00+25˚wsw258092 0.6 1012241
3 december, thu
thu301:00+23˚w258396 0.8 1012268
04:00+23˚w2486100 0.1 1011250
07:00+24˚wsw2584100 0.1 1013495
10:00+25˚sw247797 0.0 1014773
13:00+29˚ssw236290 0.1 10111036
16:00+29˚ssw3362100 0.1 10091074
19:00+25˚sw237793 0.3 1011429
22:00+24˚wsw237980 0.3 1013188